FW1524 Weather Reports


time (UTC)temp
C
wind
direction
speed
KPH
gust
KPH
rain 1hr
cm
rain 24hr
cm
rain mn
cm
humidity
%
barometer
mb
20260503053036 4 275 0.0 0.0 0.00 0.03 0.00 20 1012.3
20260503051531 4 275 0.0 0.0 0.00 0.03 0.00 27 1012.2
20260503050027 5 275 0.0 0.0 0.00 0.03 0.00 32 1012.7
20260503044541 5 275 0.0 0.0 0.00 0.03 0.00 36 1012.8
20260503043036 5 272 0.0 0.0 0.00 0.03 0.03 38 1012.9
20260503041523 5 5 0.0 0.0 0.00 0.03 0.03 42 1013.0
20260503040019 5 16 0.0 0.0 0.00 0.03 0.03 45 1012.9
20260503034514 5 242 0.0 0.0 0.00 0.03 0.03 47 1013.0
20260503033009 5 242 0.0 0.0 0.00 0.08 0.03 51 1012.9
20260503031501 5 242 0.0 0.0 0.00 0.08 0.03 52 1012.9
20260503024552 6 19 0.0 0.0 0.00 0.08 0.03 57 1012.9
20260503023050 6 26 0.0 0.0 0.00 0.15 0.03 58 1012.9
20260503021544 6 28 0.0 0.0 0.00 0.15 0.03 59 1013.0
20260503020040 6 28 0.0 0.0 0.00 0.15 0.03 60 1012.9
20260503014530 6 38 0.0 0.0 0.00 0.15 0.03 61 1013.0
20260503013026 6 241 0.0 0.0 0.00 0.20 0.03 61 1012.9
20260503011525 7 240 0.0 0.0 0.00 0.20 0.03 61 1012.7
20260503010027 7 30 0.0 0.0 0.00 0.20 0.03 60 1012.6
20260503004516 7 44 0.0 0.0 0.00 0.20 0.03 59 1012.4
20260503003017 7 5 0.0 0.0 0.00 0.28 0.03 58 1012.3
20260503001534 7 5 0.0 0.0 0.00 0.28 0.03 57 1012.3
20260503000046 7 225 0.0 0.0 0.00 0.28 0.03 58 1012.2
20260502234533 7 309 0.0 0.0 0.00 0.28 0.03 57 1012.2
20260502233033 8 18 0.0 0.0 0.00 0.41 0.03 58 1011.9
20260502231536 8 236 0.0 0.0 0.00 0.41 0.03 58 1011.8
20260502230033 8 208 0.0 0.0 0.00 0.41 0.03 58 1011.7
20260502224536 8 232 0.0 0.0 0.00 0.41 0.03 58 1011.7
20260502223033 8 214 0.0 0.0 0.00 0.41 0.03 59 1011.7
20260502221531 8 15 0.0 0.0 0.00 0.41 0.03 57 1011.8
20260502220033 8 11 0.0 3.2 0.00 0.41 0.03 56 1011.7
20260502214530 8 35 0.0 3.2 0.00 0.41 0.03 55 1011.5
20260502213037 8 232 0.0 0.0 0.00 0.41 0.03 56 1011.5
20260502211533 8 24 0.0 1.6 0.00 0.41 0.03 55 1011.5
20260502210027 9 231 0.0 0.0 0.00 0.41 0.03 55 1011.4
20260502204524 9 24 0.0 0.0 0.00 0.41 0.03 53 1011.5
20260502203023 9 227 0.0 1.6 0.00 0.41 0.03 52 1011.4
20260502201552 10 13 0.0 0.0 0.00 0.41 0.03 51 1011.5
20260502200110 9 22 0.0 0.0 0.00 0.41 0.03 52 1011.7
20260502194549 10 214 0.0 3.2 0.00 0.41 0.03 50 1011.9
20260502193052 10 227 0.0 0.0 0.00 0.41 0.03 49 1012.0
20260502191523 10 36 0.0 0.0 0.00 0.41 0.03 48 1012.1
20260502190035 10 238 0.0 1.6 0.00 0.41 0.03 51 1012.2
20260502184523 10 229 0.0 0.0 0.00 0.41 0.03 50 1012.3
20260502183021 10 241 0.0 0.0 0.00 0.41 0.03 52 1012.4
20260502181534 9 24 0.0 0.0 0.00 0.41 0.03 52 1012.4
20260502163011 10 161 0.0 4.8 0.00 0.41 0.03 48 1012.5
20260502161513 10 27 0.0 9.7 0.00 0.41 0.03 50 1012.5
20260502151605 9 20 0.0 24.1 0.00 0.41 0.03 56 1012.6
20260502123100 6 34 0.0 1.6 0.00 0.41 0.03 1 1012.9
20260502121550 6 208 0.0 3.2 0.00 0.41 0.03 1 1012.8
20260502114541 6 32 0.0 3.2 0.00 0.41 0.03 1 1012.9
20260502113048 6 25 0.0 0.0 0.00 0.41 0.03 1 1013.0
20260502111540 5 84 0.0 0.0 0.00 0.41 0.03 1 1012.7
20260502110037 5 355 0.0 0.0 0.00 0.41 0.03 1 1012.5
20260502104530 5 355 0.0 0.0 0.00 0.41 0.03 1 1012.6
20260502103026 5 355 0.0 0.0 0.00 0.41 0.03 1 1012.5
20260502101519 5 253 0.0 0.0 0.00 0.41 0.03 1 1012.5
20260502091503 6 245 0.0 0.0 0.00 0.41 0.03 1 1012.0
20260502090116 6 245 0.0 0.0 0.00 0.41 0.03 1 1011.9
20260502071526 6 273 0.0 0.0 0.00 0.41 0.03 1 1011.4
20260502070038 6 15 0.0 0.0 0.00 0.41 0.03 1 1011.3
20260502064520 6 16 0.0 0.0 0.00 0.41 0.03 1 1011.3
20260502063031 6 303 0.0 0.0 0.00 0.41 0.03 1 1011.2
20260502061513 6 222 0.0 0.0 0.00 0.41 0.03 1 1011.5
20260502060009 6 220 0.0 0.0 0.00 0.41 0.03 1 1011.1
20260502054518 6 219 0.0 0.0 0.03 0.41 0.03 1 1011.3